Flag for U.S.A. Weather past 2 weeks in Scranton, Pennsylvania, U.S.A.

Now
18 °F

Overcast.


Feels Like: 4 °F
Forecast: 12 / 31 °F
Wind: 14 mph from North

Location: Barre - Scranton - Wilkes-Barre / Scranton International Airport

Current Time: Mar 5, 2015 at 2:11:00 PM

Latest Report: Mar 5, 2015 at 12:54 PM


Visibility: 10 mi

Pressure: 30.17 "Hg

Humidity: 47%

Dew point: 1 °F

Location of ScrantonLocation

Historic Weather in Scranton — Graph

°F

Scranton temperature yesterday

Maximum temperature yesterday: 40 °F (at 2:54 PM)
Minimum temperature yesterday: 30 °F (at 12:54 AM)
Average temperature yesterday: 36 °F

Past Weeks' High & Low Weather Summary

 TemperatureHumidityPressure
High40 °F (Mar 4, 2:54 PM)89% (Mar 4, 12:54 AM)30.82 "Hg (Mar 4, 12:54 AM)
Low-8 °F (Feb 24, 4:54 AM)21% (Feb 24, 1:54 PM)29.66 "Hg (Feb 18, 3:54 PM)
Average19 °F59%30.17 "Hg
* Reported Feb 18 12:54 PM — Mar 5 12:54 PM, Scranton, Weather by CustomWeather, © 2015

Note: Actual official high and low records may vary slightly from our data, if they occured in-between our weather recording intervals... More about our weather records

Advertising

Scranton weather history for previous 24 hours

 ConditionsComfort  
Time TempWeatherWind HumidityBarometerVisibility
12:54 PM
Thu, Mar 5
18 °FOvercast.14 mph47%30.17 "Hg10 mi
11:54 AM18 °FOvercast.15 mph47%30.20 "Hg10 mi
10:54 AM18 °FMostly cloudy.16 mph47%30.16 "Hg10 mi
9:54 AM19 °FMostly cloudy.12 mph52%30.19 "Hg10 mi
8:54 AM19 °FOvercast.13 mph57%30.16 "Hg10 mi
7:57 AM20 °FLight snow. Overcast.18 mph62%30.11 "Hg3 mi
7:04 AM23 °FLight snow. More clouds than sun.12 mph68%30.07 "Hg2 mi
6:54 AM23 °FLight snow. More clouds than sun.17 mph68%30.08 "Hg3 mi
5:54 AM28 °FLight snow. Mostly cloudy.18 mph69%30.03 "Hg6 mi
4:54 AM29 °FLight snow. Mostly cloudy.12 mph72%30.01 "Hg5 mi
3:54 AM33 °FMostly cloudy.8 mph70%29.98 "Hg7 mi
2:54 AM33 °FOvercast.6 mph72%29.93 "Hg7 mi
2:03 AM32 °FLight snow. Ice fog.No wind88%29.94 "Hg3 mi
2:00 AM32 °FLight snow. Ice fog.No wind88%29.94 "Hg2 mi
1:01 AM32 °FLight snow. Ice fog.6 mph88%29.93 "Hg2 mi
11:58 PM
Wed, Mar 4
34 °FLight snow. Fog.7 mph88%29.91 "Hg1 mi
10:54 PM37 °FLight rain. Mostly cloudy.9 mph82%29.92 "Hg6 mi
9:54 PM38 °FLight rain. Overcast.8 mph79%29.91 "Hg7 mi
8:54 PM38 °FMostly cloudy.10 mph83%29.88 "Hg8 mi
7:54 PM38 °FOvercast.6 mph79%29.89 "Hg7 mi
6:54 PM39 °FOvercast.7 mph76%29.85 "Hg8 mi
5:54 PM39 °FOvercast.8 mph79%29.86 "Hg7 mi
4:54 PM39 °FOvercast.5 mph76%29.86 "Hg7 mi
3:54 PM40 °FOvercast.8 mph73%29.85 "Hg8 mi
2:54 PM40 °FOvercast.8 mph77%29.87 "Hg7 mi
Weather by CustomWeather, © 2015

See weather overviewHow to use our weather pages